Temp
25 24 24 24 24 25 26 26 27 27 28 27 25 24 24 23 23 25 25 25 25 24 24 24 23 23 23 23 23 23 23 23 23 24 24 24 24 24 24 24 24 24 25 25 25 25 25 25 24 24 24 24 23 23 23 23 23 23 23 23 23 24 24 23 23 23 23 23 23 23 23 23 23 23 23 23 23 23 23 23 23 23 23 23 23 23
25 23 23 24 25 25 26 27 27 27 28 28 26 25 24 23 24 25 25 25 26 25 23 24 23 23 23 23 23 23 22 23 23 23 24 24 24 24 24 25 25 25 25 25 25 25 25 25 24 24 24 24 23 23 23 23 23 24 24 24 24 24 24 24 23 23 23 23 23 23 24 24 24 23 23 23 23 23 23 23 23 23 23 23 23 23
24 23 24 25 25 25 26 27 27 27 28 28 26 25 23 23 24 24 25 25 25 24 23 23 23 23 23 23 23 23 23 23 23 23 24 24 24 24 25 25 25 25 25 25 25 25 25 25 24 24 24 24 24 24 23 24 24 24 24 24 24 24 24 24 24 24 24 24 24 24 24 24 24 24 24 23 23 23 23 23 23 23 23 23 23 23
22 23 25 25 24 25 26 26 27 27 27 27 26 24 23 24 24 23 23 24 23 22 23 24 23 23 23 23 22 22 23 23 23 23 24 24 24 24 25 25 25 25 25 25 25 25 25 25 24 24 24 24 24 24 23 23 24 24 24 24 24 24 24 24 24 24 24 24 24 24 24 24 24 24 24 23 23 23 23 23 23 23 23 23 23 23
24 24 25 24 24 26 26 26 27 26 25 26 27 25 24 24 24 23 23 24 23 22 23 24 22 22 23 23 22 22 22 23 23 23 23 23 23 24 24 25 25 25 25 25 25 25 24 24 24 24 24 24 24 24 23 23 24 24 24 24 24 24 24 24 24 24 24 24 24 24 24 24 24 23 23 23 23 23 23 23 23 23 23 23 23 23
25 25 25 25 25 26 26 26 27 26 25 25 27 28 27 26 25 25 24 23 22 21 23 24 21 21 23 23 23 22 22 23 22 22 22 23 23 23 24 25 25 25 25 25 25 25 25 24 24 24 24 24 24 24 24 24 24 24 24 24 24 24 24 24 24 24 24 24 24 24 23 23 23 23 23 23 23 23 23 23 23 23 23 23 23 23
25 25 26 26 26 25 26 26 26 27 24 23 26 28 28 27 25 24 24 23 21 21 24 25 22 21 22 22 23 22 22 23 22 22 22 23 23 23 24 24 25 25 25 25 25 25 25 24 24 24 24 24 24 24 24 24 24 24 24 24 24 24 24 24 24 24 24 24 24 24 24 24 24 23 24 24 24 24 23 23 23 23 23 23 23 23
25 26 26 26 26 25 25 25 26 27 25 24 26 28 27 26 25 24 24 23 22 23 24 25 23 21 21 22 23 22 22 23 22 22 22 23 23 23 23 24 25 25 25 25 25 25 25 25 24 24 24 24 24 24 24 24 24 24 24 24 24 24 24 24 24 24 24 24 24 24 24 24 24 24 24 24 24 24 24 23 23 23 23 23 23 23
26 26 26 26 26 25 25 26 26 27 26 27 28 27 27 27 25 25 24 23 23 23 21 22 23 22 21 22 23 22 22 23 23 22 22 23 23 23 23 24 24 25 25 25 25 25 25 25 25 24 24 24 25 24 24 24 24 24 24 24 24 24 24 24 24 24 24 24 24 24 24 24 24 24 24 24 24 24 24 24 23 23 23 23 23 23
26 27 27 26 26 25 26 27 27 27 27 28 28 27 27 26 25 24 24 23 22 21 21 21 22 22 21 21 22 22 22 23 23 23 23 23 23 23 23 24 24 24 25 25 25 25 25 25 25 25 25 25 25 25 24 24 24 24 24 24 24 24 24 24 24 24 24 24 24 24 24 24 24 24 24 24 24 24 24 24 24 23 23 23 23 23
26 26 26 26 27 27 27 27 27 28 28 28 27 26 25 24 24 24 23 22 21 21 21 22 22 22 21 21 22 22 23 24 24 23 23 23 23 23 24 24 24 24 24 25 25 25 25 25 25 25 25 24 24 24 24 24 24 24 24 24 24 24 24 24 24 24 24 24 24 24 25 25 24 24 24 24 24 24 24 24 24 24 24 24 23 23
26 26 26 27 27 27 27 26 26 27 27 28 28 25 23 22 23 22 22 21 21 21 21 22 23 22 21 21 22 23 25 25 25 24 23 23 23 23 24 24 24 24 24 25 25 25 24 25 25 25 25 24 24 24 24 24 24 24 24 24 24 24 24 24 24 24 24 24 24 24 24 25 25 24 24 24 25 25 24 24 24 24 24 24 24 24
25 26 26 27 28 27 27 26 25 25 26 27 26 24 22 21 21 21 20 21 20 21 22 23 23 22 21 23 24 24 25 25 26 25 24 24 23 24 24 24 24 23 24 24 25 25 24 24 24 24 24 24 24 24 24 24 24 24 24 24 24 24 24 24 24 24 24 24 24 24 25 24 24 24 24 25 25 25 25 25 25 24 24 24 24 24
24 25 26 27 27 27 27 26 24 24 25 26 24 23 21 20 20 20 20 20 21 21 22 23 23 21 22 24 24 24 24 25 26 26 25 24 24 24 24 25 24 23 24 24 24 25 24 24 24 24 24 24 24 24 24 24 24 24 24 24 24 24 25 25 25 25 25 24 24 24 25 25 24 25 25 25 25 25 25 25 25 25 25 25 25 25
22 22 25 27 27 27 28 27 27 26 25 25 26 25 22 21 21 21 20 21 21 21 22 23 23 21 22 24 24 24 24 25 26 26 26 25 24 24 24 24 23 23 24 24 24 24 24 24 24 24 24 24 24 24 24 24 24 24 24 24 24 24 25 25 25 25 25 25 24 24 25 25 25 25 25 25 25 25 25 25 25 25 25 25 25 25
21 22 26 27 26 27 28 28 28 28 25 25 27 25 23 23 23 21 21 21 21 21 21 21 22 22 23 24 24 24 24 24 26 26 25 25 24 24 24 23 22 23 23 23 24 24 24 24 24 24 24 24 24 24 24 24 24 24 24 24 24 25 25 25 25 25 25 25 24 24 25 25 25 25 25 25 25 25 25 25 25 25 25 25 25 25
21 22 26 27 26 28 28 28 28 28 26 24 24 24 24 26 25 22 21 22 21 21 21 21 22 22 23 24 24 24 24 24 25 25 25 25 24 23 23 22 22 22 23 23 24 24 23 24 24 24 24 24 24 24 24 24 24 24 24 24 24 24 24 25 25 25 25 25 25 24 25 25 25 25 25 25 25 25 25 25 25 25 25 25 26 25
22 22 26 27 27 27 27 28 29 28 28 25 23 25 26 26 26 24 21 21 21 21 21 21 21 21 22 23 23 24 24 24 24 25 24 24 24 23 23 22 22 23 23 23 24 23 23 23 24 24 24 24 24 24 24 24 24 24 24 24 24 24 24 25 25 25 25 25 25 25 25 25 25 25 25 25 25 25 25 25 25 25 25 25 25 25
22 22 24 26 27 27 27 27 27 27 28 27 26 28 26 23 23 23 21 21 21 21 21 21 21 21 21 22 23 23 22 23 23 24 24 24 24 23 22 23 23 23 23 23 23 23 22 23 24 24 24 24 25 24 24 24 24 23 23 23 23 23 23 24 24 25 25 25 25 25 25 25 25 25 25 25 25 25 25 25 25 25 25 25 25 25
23 22 23 26 26 26 27 27 25 25 27 28 27 28 27 25 23 23 22 22 21 21 21 21 21 21 22 22 23 22 22 22 23 23 23 23 23 22 22 23 23 23 23 23 23 22 22 22 23 23 24 24 25 24 24 24 23 23 23 23 23 23 23 23 24 24 25 25 25 25 25 25 25 25 25 25 25 25 25 25 25 25 25 25 25 25
23 22 22 25 26 24 25 26 25 26 27 26 26 25 25 25 25 24 23 22 22 21 21 21 21 21 22 22 22 22 22 22 22 23 22 22 22 22 22 22 22 23 23 23 22 22 22 22 22 22 23 24 24 24 24 24 24 23 23 23 23 23 23 24 24 24 24 24 24 24 24 25 25 25 25 25 25 25 25 25 25 25 25 25 25 25
23 22 21 23 24 23 24 26 26 26 27 28 27 26 25 25 24 23 22 21 22 21 21 21 21 21 21 21 21 22 22 22 22 22 22 22 21 21 22 22 22 22 22 22 22 22 22 21 21 22 22 23 23 23 24 24 24 24 23 24 24 24 24 24 24 24 24 24 24 24 24 25 25 25 25 25 25 25 25 25 25 25 25 25 25 25
23 22 21 22 23 24 25 25 24 24 26 28 27 26 26 26 24 22 22 21 21 21 21 21 21 21 21 21 21 22 22 21 22 22 21 21 21 20 21 21 21 21 21 21 21 21 21 21 21 21 21 22 22 23 23 23 23 23 23 24 24 24 24 24 24 24 24 24 24 24 24 24 24 25 25 25 25 24 24 24 25 25 25 25 25 25
23 22 21 22 23 25 25 26 25 25 26 26 26 26 25 25 25 24 23 23 21 21 21 21 21 21 21 21 21 21 21 21 21 21 21 20 20 20 20 20 20 21 21 21 21 21 20 20 20 20 21 21 22 23 22 22 22 23 23 23 23 23 23 23 24 24 24 24 24 24 24 24 24 24 24 24 24 24 24 24 24 24 24 24 25 25
22 21 21 21 22 22 24 24 25 25 26 25 25 25 25 25 25 24 24 23 22 21 21 22 22 21 20 20 21 21 21 20 20 20 20 20 20 20 20 20 20 20 20 20 20 20 19 19 19 20 20 21 21 22 21 21 22 23 23 23 23 23 22 23 24 24 23 23 23 23 23 24 24 24 24 24 24 24 24 24 24 24 24 24 24 24
22 21 21 21 21 21 21 22 22 23 23 24 24 24 24 24 25 24 23 22 22 21 21 22 22 20 20 20 20 20 20 20 20 20 20 20 20 19 19 19 19 19 19 19 19 19 18 18 19 19 20 20 21 21 20 20 22 23 23 23 23 23 22 22 23 23 22 22 22 23 23 23 23 23 23 23 23 24 24 24 24 24 24 24 24 24
23 21 20 21 21 20 21 21 22 22 22 22 22 23 23 23 24 25 23 22 22 21 21 22 21 20 20 20 20 20 20 20 19 19 19 19 19 19 19 18 18 19 19 18 18 18 18 18 18 19 19 19 20 20 20 21 22 23 23 23 23 22 22 21 22 22 22 22 22 22 22 22 22 22 22 22 22 22 23 23 24 24 24 24 24 24
23 21 21 21 21 21 21 21 22 22 22 21 21 21 22 22 24 25 23 22 22 21 21 22 21 20 20 20 20 20 20 20 19 19 19 19 18 18 18 18 18 18 18 18 18 17 18 18 18 18 18 18 19 19 20 20 21 22 22 22 22 22 21 21 21 21 21 22 21 21 21 22 22 22 23 23 22 22 22 22 23 23 23 23 24 24
22 21 20 21 22 22 21 21 22 23 22 21 21 21 21 21 24 24 23 22 23 23 22 22 21 20 21 21 20 20 20 20 19 19 19 18 18 18 18 18 18 18 18 18 18 18 18 18 18 17 18 18 18 19 19 20 20 20 20 20 21 21 20 20 20 20 20 20 20 20 20 20 21 21 22 22 23 23 22 22 22 23 23 23 23 24
21 21 20 21 22 22 21 21 21 22 22 22 21 21 20 21 22 22 22 21 22 22 21 21 20 20 21 21 21 20 20 20 19 18 18 18 18 18 18 18 18 18 18 18 18 18 18 18 18 17 17 18 18 18 18 19 19 19 19 20 20 20 20 20 20 20 20 20 20 20 20 19 20 20 20 21 21 22 22 22 22 22 22 23 23 23
21 21 20 20 22 22 22 22 22 22 22 22 21 21 20 21 22 22 21 21 22 21 20 20 21 20 20 21 21 20 20 19 18 18 18 18 18 18 18 17 17 18 18 18 18 18 18 18 18 17 17 17 18 18 18 18 19 19 19 19 19 19 19 19 19 19 19 19 19 19 19 19 20 20 19 19 20 20 20 21 21 20 21 22 22 23
21 20 20 21 22 21 21 22 22 23 23 22 21 21 20 20 21 21 20 20 21 21 20 20 21 20 19 20 20 19 19 18 18 18 18 18 18 18 18 17 17 18 18 18 18 18 18 18 18 18 18 17 18 18 18 18 18 19 19 19 19 19 19 19 19 19 19 19 19 19 19 19 19 19 19 19 20 20 20 20 20 20 20 21 21 22
19 20 21 21 21 21 20 21 23 23 22 21 20 20 20 19 20 21 20 19 19 20 20 21 21 20 19 19 19 19 18 18 18 18 18 18 18 18 18 18 18 18 18 18 18 18 18 19 18 18 18 17 17 17 18 18 18 18 18 18 18 18 18 18 18 18 19 19 19 19 19 19 19 19 19 19 19 20 20 20 20 20 20 21 21 21
19 20 20 19 20 21 20 22 22 21 20 20 21 21 20 20 20 20 20 18 18 19 20 20 20 19 19 19 19 18 18 18 18 18 18 18 18 18 18 18 18 18 18 18 19 18 18 18 18 18 18 17 17 17 18 18 17 17 17 17 17 18 18 18 18 18 18 18 18 18 18 18 18 18 19 19 19 19 19 19 19 19 20 20 20 21
20 20 19 19 20 20 20 21 21 20 20 21 21 21 21 20 20 20 19 18 18 19 19 19 19 19 19 19 19 18 18 18 18 18 18 18 18 18 18 18 18 19 19 19 18 18 18 18 18 18 18 18 18 18 18 18 17 17 17 17 17 17 17 17 17 17 18 18 18 18 18 18 18 18 18 18 19 19 19 19 19 19 19 20 20 20
21 20 19 19 19 19 19 21 20 20 21 22 21 21 21 21 20 21 21 20 18 18 19 19 18 18 19 18 18 18 18 18 18 18 18 18 18 18 18 18 19 19 19 18 18 18 18 18 18 18 18 18 18 18 18 18 18 17 17 17 17 17 17 17 17 17 18 18 18 18 18 18 18 18 18 18 18 18 18 19 19 19 19 20 20 20
20 20 20 19 18 18 19 19 20 20 21 21 21 21 20 20 20 20 21 20 18 18 18 18 18 18 18 18 18 18 18 18 18 17 18 18 18 18 18 18 18 18 18 18 18 18 18 18 18 18 18 18 18 18 18 18 18 17 17 17 17 17 17 17 17 17 17 18 18 18 18 18 18 18 19 19 18 18 18 19 19 19 19 20 20 20
19 19 20 20 18 18 18 19 20 20 20 20 21 20 19 19 19 18 20 21 19 18 18 18 18 18 18 18 18 18 18 18 17 17 17 18 18 17 17 17 17 17 17 17 17 17 17 18 18 18 18 18 18 18 18 18 18 18 17 17 17 17 17 17 17 17 17 17 17 18 18 18 18 18 18 19 18 18 19 19 19 20 20 20 19 19
19 18 19 20 19 18 19 20 19 20 20 20 20 20 19 18 18 18 20 21 19 18 18 18 18 18 18 18 18 18 19 18 17 17 17 17 17 17 17 16 16 17 17 17 17 17 17 17 18 18 18 18 18 18 18 18 18 18 17 16 16 16 16 16 16 16 16 17 17 17 17 18 18 18 18 18 18 18 19 19 19 19 20 20 20 19
20 19 19 20 19 18 19 20 19 19 20 19 19 20 19 18 18 19 21 21 19 18 18 18 18 18 18 18 18 19 19 18 17 17 17 17 16 16 16 16 16 16 16 17 17 17 17 17 17 17 17 17 17 17 18 18 18 17 16 16 16 16 15 16 16 16 16 16 17 17 17 17 17 17 17 17 17 18 18 18 19 19 20 20 20 19
18 18 18 18 19 19 19 19 19 19 19 19 19 19 18 18 20 21 21 20 18 18 18 18 18 18 18 18 19 19 18 17 17 17 17 16 16 16 16 16 16 16 16 16 17 17 17 17 17 16 16 16 17 17 18 18 17 16 16 16 16 15 15 15 15 16 16 16 16 16 16 16 16 17 17 17 17 17 17 18 18 19 19 19 19 19
18 18 17 17 18 17 18 19 19 19 19 18 18 18 18 20 21 20 19 18 17 18 18 17 17 18 18 18 18 18 17 17 17 17 16 16 16 15 15 15 15 15 15 16 17 17 17 16 16 16 16 16 17 17 17 17 16 16 16 15 15 15 15 15 15 15 15 15 15 15 15 16 16 16 16 16 16 17 17 17 17 18 18 18 19 19
18 18 18 17 16 16 18 19 19 19 19 17 17 19 20 20 20 19 19 18 17 18 18 18 17 17 17 17 17 16 16 17 17 17 16 16 15 15 15 15 15 14 15 15 16 17 17 16 15 15 15 16 16 16 16 17 16 15 15 15 14 15 15 15 15 15 15 15 15 15 15 15 15 15 15 16 16 16 16 16 17 17 17 17 18 18
17 18 18 17 17 18 19 19 18 19 18 16 17 19 19 18 17 17 18 19 19 18 17 18 18 17 17 16 16 16 17 17 16 16 16 15 15 14 14 14 14 14 14 15 15 16 17 16 15 15 15 15 16 16 16 16 15 15 15 14 14 15 15 15 15 15 15 14 14 14 14 14 14 15 15 15 15 15 15 16 16 16 16 16 17 17
17 17 18 18 17 17 18 18 17 17 16 15 15 17 17 16 16 15 16 18 19 18 17 17 18 17 17 16 16 16 16 16 16 15 15 15 14 14 14 14 14 14 14 14 15 16 16 16 15 15 15 15 15 15 15 15 15 15 14 14 14 14 14 14 14 14 14 14 14 14 14 14 14 14 14 14 14 15 14 15 15 15 15 15 15 15
16 15 16 18 17 16 17 17 16 16 16 15 15 15 15 16 15 15 16 17 17 17 16 17 18 17 17 16 16 16 16 16 15 15 15 14 14 13 13 13 13 13 14 14 14 15 15 15 15 14 14 14 14 15 15 15 15 14 14 14 14 14 14 14 14 14 14 13 13 13 14 14 13 14 14 14 14 14 14 14 14 14 14 14 14 14
16 15 16 17 17 17 18 17 16 16 15 15 15 16 15 15 15 14 15 15 15 15 15 16 17 17 16 16 16 16 15 15 15 15 14 14 13 13 13 13 13 13 13 14 14 15 15 15 14 14 14 14 14 14 14 14 14 14 13 14 14 14 14 14 13 13 13 13 13 13 13 13 13 13 13 13 13 13 13 13 13 13 13 13 13 13
16 16 17 17 17 18 18 17 16 16 15 14 15 16 16 16 15 15 15 15 14 14 14 14 15 16 16 16 16 15 15 14 14 14 14 13 12 12 12 13 13 13 13 14 15 15 15 15 14 14 14 13 13 14 14 14 14 14 14 14 13 13 13 13 13 13 13 12 12 12 12 12 12 12 12 12 12 12 12 12 13 13 13 12 12 12
16 17 17 16 17 17 17 17 16 16 16 16 15 15 15 15 16 16 16 16 15 15 14 14 14 15 15 15 14 15 15 14 13 13 13 13 12 12 12 13 13 14 14 14 15 15 15 15 14 14 14 13 13 14 14 13 13 13 13 13 13 13 13 13 12 12 12 12 12 12 12 11 11 11 11 11 11 11 12 12 12 12 12 12 12 12
16 17 16 16 17 18 18 18 17 17 18 17 16 16 15 14 16 18 17 17 16 16 15 15 14 14 14 14 14 14 15 14 13 13 13 12 12 12 12 13 13 13 14 14 15 15 15 14 14 14 13 13 13 14 14 13 13 13 13 13 13 13 13 12 12 12 12 12 12 11 11 11 11 11 11 11 11 11 11 11 11 11 12 12 12 12
17 18 17 17 17 18 18 18 17 17 18 17 16 16 15 14 16 18 17 16 17 16 15 15 15 14 14 14 14 14 14 13 13 13 12 12 12 12 13 13 13 13 14 14 14 14 14 14 14 14 13 13 13 13 13 13 13 13 13 12 12 12 12 12 12 12 11 11 11 11 11 11 11 10 10 10 10 10 10 10 11 11 11 11 11 11
Height
777 788 794 793 794 791 789 788 788 788 788 792 799 804 806 810 814 809 803 800 799 812 820 816 818 820 819 817 816 816 817 820 822 822 822 822 822 823 825 826 826 827 827 826 829 830 832 834 836 838 840 842 844 846 847 849 851 852 854 855 857 859 860 862 862 864 865 866 867 868 869 870 871 872 873 874 875 876 876 877 878 879 879 880 881 881
780 793 794 787 789 787 785 785 785 787 788 790 796 802 806 809 812 805 802 800 796 808 820 816 819 821 817 817 816 816 819 820 820 822 822 822 823 823 824 825 825 825 826 826 828 830 831 834 835 837 839 841 843 845 847 848 850 852 853 855 857 858 860 861 862 864 865 866 867 868 869 870 871 872 873 874 875 876 877 877 878 879 880 880 881 882
790 795 789 784 785 785 785 785 785 788 789 792 794 801 809 809 809 807 803 801 801 812 822 818 821 822 816 816 816 815 817 818 818 819 820 821 823 824 824 825 825 826 826 827 827 829 831 833 835 837 838 840 842 844 846 848 849 851 853 855 856 858 859 861 862 864 865 866 867 868 869 870 871 872 873 874 875 876 877 878 878 879 880 880 881 882
798 792 782 782 784 785 788 787 786 789 791 793 795 800 807 806 808 815 812 809 811 818 821 819 822 822 817 817 818 816 815 816 818 819 819 820 822 823 822 822 824 825 826 826 827 827 829 832 834 836 837 839 841 843 845 847 849 850 852 854 856 857 859 860 862 864 865 867 868 869 870 871 872 873 874 875 875 876 877 878 878 879 880 881 881 882
792 784 778 782 785 784 789 790 788 792 795 795 794 795 801 803 805 809 811 811 814 819 818 820 830 829 820 822 821 817 817 817 819 821 821 821 821 822 821 821 822 822 824 825 826 826 828 831 832 834 836 838 840 842 844 846 847 849 851 853 855 857 859 860 862 864 865 867 868 869 870 871 872 872 873 874 875 876 877 877 878 879 880 881 881 882
785 779 777 782 786 785 788 791 789 791 796 796 792 789 793 798 801 804 808 812 822 829 818 819 840 838 821 822 823 819 820 820 820 822 823 822 821 822 822 821 821 821 821 822 823 825 826 829 831 833 835 837 839 840 842 845 846 848 850 852 855 857 858 860 862 864 865 866 868 868 869 870 871 872 873 874 874 875 876 877 878 879 880 881 881 882
780 776 776 780 784 786 788 790 788 788 797 800 790 783 787 792 799 804 807 814 826 830 815 810 832 840 829 824 822 820 822 821 820 822 822 822 821 821 821 820 820 820 820 820 821 823 825 827 830 832 834 836 837 839 841 843 846 848 850 851 854 856 858 860 861 863 865 866 867 868 869 870 871 872 872 873 875 876 877 877 878 879 880 881 882 882
777 777 778 779 782 788 791 791 788 786 795 797 785 781 788 791 797 802 805 814 818 818 816 812 819 834 835 824 818 820 823 822 821 821 820 821 821 820 819 818 818 818 818 820 821 821 823 825 828 830 832 834 835 838 840 842 844 846 848 850 853 855 857 859 861 863 864 865 866 867 869 870 870 871 872 874 875 876 877 878 879 879 880 881 882 882
774 776 778 779 783 788 788 787 783 783 790 788 780 782 786 788 794 798 804 812 813 819 831 824 817 830 835 823 818 822 825 823 821 819 818 818 818 818 818 816 816 816 816 817 819 820 821 823 826 828 830 832 834 837 839 841 843 845 847 849 852 854 856 858 860 862 863 864 866 867 868 869 870 871 873 874 875 876 877 878 879 879 880 881 881 882
773 772 771 775 782 783 781 780 777 781 785 780 778 784 785 790 797 802 810 815 819 829 836 827 821 829 832 825 823 827 825 819 814 813 813 813 814 815 815 814 814 814 814 815 816 818 819 821 823 826 828 831 834 836 838 840 842 844 846 849 851 853 855 857 859 861 862 863 865 866 868 869 870 871 872 873 875 876 876 877 878 879 880 880 881 882
770 767 767 771 774 773 773 775 774 776 778 776 781 790 795 800 803 809 816 819 833 840 831 822 820 825 830 824 820 818 810 803 804 810 811 811 812 813 813 813 812 813 813 814 815 817 819 820 822 825 827 830 832 835 837 839 842 843 845 848 850 852 854 856 858 860 861 862 864 865 867 868 870 871 872 873 874 875 876 877 877 878 879 880 881 881
771 770 770 766 764 765 769 774 775 773 773 777 786 793 804 814 813 820 824 827 844 843 823 816 817 824 831 821 812 805 795 792 797 804 808 809 810 810 810 810 810 811 812 813 815 817 819 821 823 824 826 829 832 834 836 838 840 842 844 847 849 851 853 855 857 858 860 861 862 864 866 868 869 871 872 872 873 874 875 876 877 878 879 879 880 881
774 771 769 763 759 761 769 778 780 780 778 782 790 795 812 831 833 838 841 840 846 836 818 814 816 825 825 808 802 800 793 791 791 794 800 803 806 807 808 809 810 811 812 812 814 816 818 820 821 824 826 828 830 832 834 836 839 841 843 845 847 849 851 853 855 856 858 859 861 863 865 867 868 870 871 872 872 873 874 875 876 877 878 879 879 880
780 773 767 765 763 758 764 777 784 787 784 786 792 797 813 836 847 855 856 848 842 828 815 812 815 824 816 798 797 797 790 789 787 788 793 796 801 804 805 807 809 811 811 812 813 814 815 817 819 822 824 826 828 830 832 835 837 839 841 843 845 847 849 851 852 854 856 858 859 862 864 866 867 868 870 870 871 872 873 874 874 875 876 877 878 879
792 787 770 765 765 757 760 767 770 776 783 784 783 788 803 818 832 847 849 842 837 829 821 818 819 822 813 799 794 789 785 785 784 786 788 792 797 800 804 808 809 811 811 810 811 811 812 814 816 820 822 824 826 828 831 833 835 837 839 841 842 844 846 848 850 852 854 856 858 861 863 864 866 867 868 869 870 871 872 872 873 874 875 876 877 877
794 788 764 757 759 756 758 760 758 768 782 784 778 786 798 797 803 821 827 822 823 829 829 823 818 813 804 795 789 784 784 784 783 786 788 793 797 800 805 809 809 810 809 809 810 811 812 814 816 818 820 822 825 827 830 831 833 835 837 839 840 842 844 846 849 851 854 856 858 859 861 863 864 865 866 867 868 869 870 871 872 873 874 874 875 876
792 782 760 757 758 753 755 755 755 763 776 783 785 789 788 780 784 807 820 815 815 828 830 821 815 810 803 799 792 788 788 787 786 788 789 793 796 800 805 807 809 810 809 809 810 811 812 814 816 817 819 822 824 827 829 830 831 832 834 836 838 840 843 845 848 850 853 855 856 858 859 861 863 864 865 866 867 868 869 870 871 872 873 873 874 875
787 781 762 758 760 753 750 752 753 753 761 778 787 781 777 781 784 796 817 826 827 832 829 822 821 818 814 810 801 797 797 794 792 790 791 793 794 798 803 805 807 808 808 809 809 810 812 812 815 817 819 822 824 825 827 828 829 830 832 835 837 839 842 844 846 849 851 853 854 855 857 859 861 862 864 865 866 868 868 869 870 871 872 872 873 874
781 783 768 757 760 756 748 755 763 759 755 763 768 765 773 793 798 797 813 827 833 838 833 827 828 822 816 812 806 806 806 800 796 794 793 795 795 798 801 802 804 806 808 809 809 811 812 812 814 816 818 821 823 826 827 829 830 832 834 836 838 840 842 844 846 847 849 851 852 854 855 857 859 861 863 864 866 867 868 869 869 870 871 872 873 873
778 786 777 759 758 758 753 759 770 769 761 758 762 764 769 781 789 793 802 808 820 835 834 829 829 819 809 807 805 807 807 802 799 797 796 797 798 799 801 802 804 805 807 808 810 812 812 813 814 815 818 821 823 826 828 830 832 833 835 836 838 840 841 843 845 846 847 849 851 853 854 856 858 859 862 863 865 866 867 868 868 869 870 870 871 872
777 785 783 765 758 763 763 764 767 767 765 765 769 773 774 776 779 786 797 800 806 822 829 830 829 817 805 804 805 804 804 802 799 798 799 799 800 800 801 802 803 803 805 807 809 811 812 813 814 815 817 819 821 825 827 829 831 831 833 835 837 839 840 842 843 844 846 848 850 852 853 855 857 858 860 862 863 865 866 867 868 868 869 869 870 871
778 783 785 776 768 768 767 762 760 762 762 762 765 768 772 776 780 790 805 807 802 808 818 821 818 812 806 804 802 801 801 800 799 799 801 801 802 803 802 802 803 804 806 807 808 809 810 812 815 816 817 819 821 823 826 828 829 829 831 833 835 838 839 840 841 842 844 846 848 850 852 854 855 857 859 860 862 863 864 866 867 868 868 868 869 870
775 782 786 780 773 770 766 760 761 763 760 758 762 766 770 771 773 784 798 805 806 808 812 815 812 809 808 802 798 800 799 799 800 799 801 803 804 804 804 804 805 805 806 807 808 809 811 813 815 816 818 819 821 823 825 827 828 828 830 832 835 836 838 839 839 840 843 844 846 849 850 852 854 856 858 859 861 862 863 865 866 867 867 867 868 869
775 786 788 780 774 768 762 759 759 760 760 763 766 769 772 772 770 775 780 789 802 808 809 813 814 811 807 801 799 801 800 801 802 801 802 806 806 806 806 806 806 807 807 808 809 811 812 814 815 816 817 818 819 822 824 826 827 828 830 832 834 837 839 839 838 839 841 842 845 847 849 851 853 855 857 858 860 861 862 864 865 866 866 867 867 868
779 794 793 787 787 784 777 773 769 764 765 772 775 772 773 774 773 776 780 784 796 806 805 804 810 813 810 804 802 803 803 804 805 804 804 807 807 808 808 808 808 809 809 810 811 813 814 815 816 816 816 817 818 821 823 825 827 827 828 829 830 834 838 838 837 838 839 841 844 845 847 849 851 853 855 857 859 860 861 863 864 865 866 866 866 867
783 796 795 793 800 803 801 796 789 782 779 779 779 776 775 776 773 774 784 787 792 806 805 796 803 816 813 807 807 806 806 808 808 807 807 808 809 809 810 810 811 810 812 813 814 815 816 816 817 817 817 818 819 821 823 824 824 824 825 825 827 831 834 836 837 838 839 842 844 845 847 848 850 851 854 856 858 859 861 862 863 864 865 865 865 866
785 795 797 798 802 805 804 799 792 790 789 789 788 784 781 782 775 772 781 785 788 804 807 796 801 815 814 810 811 809 808 810 810 810 810 811 811 812 812 813 813 813 814 814 815 817 818 818 818 818 818 819 820 821 822 821 820 821 821 823 826 829 831 833 835 837 838 840 842 844 845 846 847 849 851 854 857 859 860 861 862 863 863 864 864 865
786 796 799 799 800 801 800 796 790 788 792 796 796 792 789 785 776 770 778 783 786 797 802 798 803 811 810 808 809 808 808 808 810 812 812 813 814 814 815 815 815 816 816 817 818 819 819 819 819 819 819 819 820 820 821 820 819 820 822 823 826 827 829 831 833 835 836 837 839 841 842 843 844 845 847 849 853 856 858 860 861 861 862 863 863 863
789 800 802 799 796 795 795 794 791 789 790 795 797 796 794 789 779 775 783 789 787 785 787 793 803 806 804 803 804 806 806 806 809 811 812 813 814 815 816 817 818 819 819 819 820 820 820 821 820 821 821 821 821 821 821 821 822 824 825 825 826 827 829 830 832 834 836 838 840 842 842 842 844 845 846 848 850 852 854 856 859 860 861 861 861 862
791 800 804 800 793 791 794 794 793 791 790 792 795 796 797 794 788 785 791 794 791 790 791 795 802 804 800 798 801 803 804 805 809 811 812 813 815 815 817 818 819 820 820 820 821 821 821 821 821 822 823 823 823 822 822 823 824 825 825 825 827 829 830 831 831 833 835 838 839 840 840 841 843 844 847 849 850 851 852 853 855 858 859 859 859 860
789 799 806 800 794 794 795 792 791 793 793 793 795 796 797 796 790 788 793 794 793 798 802 799 803 806 801 796 799 802 804 807 811 813 815 815 815 816 818 820 821 821 821 821 822 822 822 822 822 823 823 824 824 824 824 824 824 824 823 823 826 829 831 832 833 833 835 837 837 838 840 841 842 843 846 849 851 852 852 852 853 857 859 858 857 858
791 800 803 798 797 800 799 795 792 789 787 792 797 800 803 803 798 796 799 798 796 800 804 803 804 807 802 797 800 804 807 810 813 815 817 817 817 817 819 821 822 822 822 822 822 823 822 822 823 824 824 825 826 825 826 826 826 825 824 825 827 829 832 835 835 835 835 835 836 837 839 840 841 844 847 850 851 850 851 851 853 857 859 857 856 856
799 799 800 800 800 803 804 800 793 788 795 807 809 806 808 808 804 800 800 801 801 802 805 805 803 802 800 798 802 807 809 812 814 814 815 817 817 818 820 821 822 822 822 823 823 824 824 823 824 825 826 827 827 827 827 827 828 829 829 829 830 832 834 836 836 835 835 835 835 837 838 839 841 845 848 849 849 848 849 850 852 855 857 856 854 854
802 800 805 807 802 806 809 799 794 806 820 822 810 803 806 808 805 805 806 807 806 802 802 803 801 800 802 801 804 808 810 811 813 813 813 814 817 819 821 821 822 823 823 824 824 825 825 825 826 827 827 828 828 828 829 829 831 832 833 833 833 833 834 836 836 836 836 836 836 838 840 841 843 845 847 847 847 847 847 848 850 854 856 855 854 853
801 802 809 811 807 814 813 805 815 831 825 811 803 801 801 802 803 805 806 807 806 802 801 802 802 802 803 804 806 809 811 812 812 813 814 815 816 818 821 822 823 823 824 825 825 826 826 826 827 828 828 829 830 830 830 831 833 834 834 835 835 835 836 837 837 838 839 839 840 841 842 843 844 845 845 845 846 847 848 848 849 853 855 854 853 853
800 802 809 814 817 820 817 815 827 830 812 801 803 802 799 800 802 802 802 804 806 804 801 804 807 805 805 807 809 810 812 813 815 817 817 817 817 818 820 822 823 823 824 825 826 826 827 828 828 829 829 831 832 832 832 833 834 835 836 837 838 838 839 840 841 842 842 842 843 843 843 844 845 845 845 846 847 848 849 849 850 852 853 853 852 852
801 802 805 813 820 823 823 822 822 818 812 809 808 806 807 809 808 808 807 805 806 805 802 804 807 808 809 811 812 813 813 815 821 823 821 819 820 820 821 822 823 824 824 825 826 828 828 829 830 830 831 832 833 834 834 835 836 837 838 839 840 840 841 842 843 844 844 843 844 844 845 846 847 847 847 848 848 848 849 849 850 851 851 851 851 851
803 803 803 810 820 824 826 827 826 825 824 819 813 810 810 809 809 810 809 806 806 806 804 804 807 810 812 813 814 814 814 821 829 829 824 822 822 822 823 824 824 825 826 827 828 829 830 830 831 831 832 834 835 836 837 837 838 839 840 841 841 842 843 844 845 845 845 845 845 845 846 847 848 848 848 848 848 848 849 850 850 850 850 849 849 850
805 808 805 807 817 822 821 824 830 830 825 819 814 809 807 808 809 808 809 809 808 808 805 805 808 811 812 814 815 814 817 827 833 829 824 823 823 822 823 824 825 826 828 829 830 832 833 833 832 833 834 835 837 838 839 839 839 840 841 842 843 844 845 846 847 847 847 847 847 848 848 849 849 849 849 849 849 849 850 850 850 850 849 849 849 849
806 808 809 812 820 823 821 824 829 826 821 819 814 807 806 806 806 811 819 816 810 808 807 806 808 810 810 812 814 815 819 825 828 825 823 824 824 824 824 824 825 827 829 830 832 833 835 836 835 835 836 837 839 840 840 840 841 841 843 844 844 846 847 849 850 850 849 849 849 849 850 850 850 850 850 850 851 850 850 850 850 850 849 849 849 849
818 817 820 822 823 823 822 825 829 825 819 815 812 808 806 804 807 819 825 817 810 810 809 807 809 809 807 808 809 811 815 818 820 821 822 823 824 825 826 826 827 828 829 831 833 834 836 837 837 837 839 839 840 841 842 842 842 843 845 845 846 848 850 851 851 851 851 851 851 852 852 852 852 852 852 852 852 852 851 851 850 850 849 848 848 848
824 825 828 828 829 831 828 827 830 830 821 814 812 808 804 807 816 821 818 812 811 811 809 809 811 810 809 809 809 810 813 814 816 820 823 824 825 826 827 828 829 830 831 832 833 834 836 838 839 840 841 842 842 843 844 844 844 846 847 847 849 850 851 852 852 853 853 853 853 854 854 854 854 854 854 854 853 853 852 852 851 850 850 849 849 848
823 825 829 831 834 836 832 830 833 831 822 816 814 809 806 813 818 816 812 811 811 810 810 811 812 811 812 813 813 814 814 814 815 818 820 823 826 827 828 828 829 831 831 832 833 835 835 838 840 842 843 844 845 845 846 846 846 848 848 849 851 852 852 853 853 853 854 854 855 855 855 856 856 855 855 855 855 854 854 853 853 852 851 851 850 850
823 824 828 830 830 830 830 830 830 826 820 818 817 814 814 816 816 814 812 810 808 808 811 811 811 813 814 815 816 816 816 817 819 821 822 824 827 829 830 830 831 832 832 833 834 835 835 838 840 842 844 846 846 847 847 847 848 849 849 851 852 853 853 853 854 854 855 855 856 856 856 856 856 856 856 856 855 855 855 854 854 853 853 853 852 851
822 822 823 823 824 826 825 824 823 821 821 821 820 818 817 815 815 815 814 810 807 808 809 810 811 813 814 815 818 819 819 821 824 825 827 829 831 833 833 832 833 834 834 834 836 836 837 838 841 843 845 846 847 848 848 849 849 850 851 852 853 854 854 854 855 855 855 855 856 856 856 856 856 856 856 856 855 855 855 855 855 854 854 854 854 853
821 822 822 820 822 824 823 821 821 822 822 821 820 819 818 816 815 815 813 811 810 809 809 810 811 813 814 816 818 820 822 823 824 826 828 831 834 836 836 835 836 837 836 837 837 839 839 840 842 844 845 847 848 848 849 849 850 851 853 854 854 855 855 855 856 856 856 857 857 857 857 856 856 856 856 856 856 856 856 855 855 855 855 855 854 855
821 821 821 820 822 824 823 821 821 821 821 821 819 817 816 816 815 815 814 813 812 811 811 810 810 812 815 817 818 821 824 824 824 827 829 831 834 836 837 837 839 839 839 839 839 840 842 842 844 846 847 848 849 849 850 850 850 851 853 853 854 855 855 856 856 857 857 858 858 858 857 857 857 857 856 856 856 856 856 856 855 855 855 854 854 854
820 819 820 822 823 822 821 820 821 821 821 822 820 818 817 817 816 815 814 814 813 813 812 812 812 813 814 816 818 821 823 825 825 826 829 832 833 834 836 839 841 841 842 842 842 842 842 843 845 847 848 849 850 851 851 851 851 852 852 853 853 854 855 855 856 857 857 858 858 858 858 858 857 857 857 856 856 856 855 855 855 855 854 854 854 854
818 818 821 823 823 821 820 820 820 821 821 820 820 819 818 818 816 815 815 814 814 814 814 814 814 814 814 816 817 819 823 826 826 826 828 830 831 832 834 837 840 842 842 844 844 843 843 844 846 847 849 850 851 852 852 853 853 853 853 853 853 853 854 855 855 856 857 857 857 858 858 858 858 857 857 857 856 856 856 855 855 854 854 854 854 854
818 818 822 824 824 823 820 817 818 820 820 820 819 818 818 818 817 815 815 815 815 815 815 815 815 815 815 816 817 818 821 824 825 826 827 828 830 831 832 835 839 840 841 844 845 845 845 845 846 847 849 850 851 852 853 853 854 854 854 854 853 853 854 854 855 855 856 856 857 857 857 857 857 857 857 857 856 856 855 855 854 854 854 854 854 854
814 815 817 820 821 820 816 814 816 817 817 817 817 817 817 818 816 815 815 816 816 816 816 816 817 817 817 816 817 818 820 821 823 825 826 827 829 830 831 834 837 838 839 843 845 845 845 846 846 847 848 850 851 852 853 853 854 854 854 854 854 854 855 855 855 855 856 856 856 856 856 856 856 856 856 856 855 855 854 854 854 854 853 853 853 853
Wind_Speed
3 4 2 4 4 4 6 6 6 3 3 6 5 3 5 5 3 3 3 7 12 8 6 6 5 5 5 8 10 9 8 7 7 8 8 8 8 9 9 9 10 9 9 14 18 20 22 22 22 22 23 23 23 22 22 21 21 20 18 18 17 16 17 17 18 17 16 15 14 13 12 11 11 11 11 10 9 8 7 7 8 7 7 8 7 6
3 4 5 6 6 5 5 6 5 2 4 5 4 4 4 3 3 2 3 9 11 6 5 7 7 6 7 7 7 9 11 10 9 10 9 9 7 8 10 10 10 8 8 12 15 18 21 21 21 22 23 24 23 22 22 22 21 20 19 18 17 17 18 19 19 18 18 17 15 14 13 12 12 12 11 10 9 8 8 7 7 7 7 8 7 6
2 4 7 6 6 4 2 3 4 3 3 3 3 4 3 3 3 2 2 6 5 1 3 7 7 5 6 7 7 10 12 9 8 9 9 9 7 7 9 10 9 8 8 9 11 16 19 21 21 22 23 25 25 24 24 23 22 21 20 19 18 18 19 20 20 19 18 16 14 13 12 11 12 12 11 9 8 8 8 7 7 7 7 8 7 6
2 4 7 5 6 6 3 2 4 4 3 2 3 4 2 4 3 2 2 5 3 3 3 5 4 2 5 7 7 8 9 6 5 6 5 4 4 6 8 8 9 10 10 10 10 13 18 20 21 21 23 25 25 24 24 24 24 23 23 21 19 19 20 21 21 19 18 15 12 13 12 11 12 11 10 10 9 8 8 8 8 8 8 8 8 7
4 5 3 6 6 7 5 3 5 5 0 2 2 4 3 5 5 3 6 7 5 3 5 5 2 2 5 7 7 6 7 7 6 6 5 3 2 4 5 7 8 9 10 11 10 12 16 19 21 22 23 24 24 25 25 25 26 25 24 23 22 21 21 21 21 20 18 15 13 14 14 13 13 11 11 12 11 11 10 9 9 8 8 9 9 8
5 6 4 7 4 5 6 4 4 5 2 3 3 6 6 7 6 7 10 8 4 3 7 7 3 2 3 5 7 7 9 10 8 8 9 7 5 4 6 7 7 7 8 10 11 13 15 18 21 22 22 23 24 26 27 27 27 26 25 25 24 23 23 22 21 20 19 16 16 17 16 15 14 13 13 14 13 12 11 10 9 8 8 9 10 9
3 3 4 6 5 5 5 3 4 5 5 2 5 7 8 8 8 11 11 7 2 3 7 6 3 1 2 3 6 7 10 11 10 11 12 9 7 5 6 7 6 7 7 8 11 13 16 18 20 21 22 24 26 27 27 27 27 27 26 26 26 25 24 23 22 21 20 18 18 19 18 16 16 15 15 14 13 12 11 10 9 8 9 9 9 10
2 3 4 4 5 5 4 2 4 6 7 2 4 6 9 9 10 13 11 5 2 3 4 4 2 2 3 3 5 6 10 12 11 13 13 11 9 7 7 8 7 7 8 8 10 12 16 20 21 22 24 27 28 27 26 26 28 28 28 27 27 26 25 24 23 22 20 19 20 21 19 17 17 16 14 13 13 12 11 10 9 9 9 9 9 10
2 4 3 4 4 3 4 5 6 7 4 5 4 5 7 7 8 10 7 4 3 4 3 6 2 3 4 2 6 6 8 12 12 14 15 15 13 9 7 9 8 7 8 9 10 12 17 21 24 26 28 28 27 26 26 27 29 29 28 28 27 26 26 25 24 23 21 19 20 21 19 17 17 16 14 13 13 13 12 11 10 9 9 9 9 9
2 4 6 6 4 4 6 6 8 9 4 4 3 4 5 6 6 5 4 3 4 2 3 7 5 2 3 2 6 7 7 11 13 12 15 15 14 11 8 9 8 6 7 8 10 14 19 23 27 28 28 28 27 27 28 28 28 29 28 28 28 27 26 25 24 23 21 20 21 20 18 17 16 16 15 14 13 13 13 12 11 10 9 9 9 9
4 2 3 4 5 6 6 6 8 10 8 3 5 6 7 7 5 5 3 4 4 2 3 8 8 3 1 3 6 7 5 8 11 9 11 13 13 12 9 8 8 6 6 7 9 13 20 24 27 27 27 27 27 26 27 27 27 28 29 28 28 27 27 26 25 24 22 22 22 20 18 17 16 16 16 15 14 14 14 13 12 11 10 9 9 9
5 2 2 3 5 6 4 4 4 6 7 4 4 4 5 4 4 4 3 4 3 3 3 7 8 4 1 4 6 9 4 4 11 11 12 14 14 13 9 8 8 6 6 7 8 10 14 18 21 24 25 25 25 25 26 27 28 28 29 29 29 28 28 28 27 25 24 24 23 21 19 17 16 16 16 15 14 14 14 13 12 11 10 10 9 10
4 4 4 4 4 6 6 2 1 1 3 5 4 5 5 2 2 2 1 1 2 4 3 5 8 3 4 5 5 10 9 5 9 12 13 15 15 14 11 8 6 5 5 6 7 8 10 13 17 20 22 24 25 27 28 28 28 28 29 29 29 29 29 29 29 28 26 26 25 23 21 19 16 15 16 16 15 14 13 13 12 12 12 11 11 11
2 5 3 3 4 4 8 5 2 1 4 6 5 5 5 3 2 1 1 1 2 4 1 5 7 1 4 3 2 7 9 7 7 10 13 15 15 14 11 8 5 4 4 5 7 9 10 14 19 21 22 25 26 28 29 29 29 29 29 29 30 31 31 30 30 29 28 27 25 24 23 21 18 15 15 17 17 16 14 13 12 12 12 12 12 12
2 3 4 5 3 4 8 7 6 6 5 5 5 5 5 4 4 3 3 2 3 2 1 4 4 2 2 3 5 6 6 6 6 8 12 13 12 11 8 6 6 5 4 4 7 9 12 17 21 22 23 26 27 28 29 29 29 29 30 31 32 32 32 31 30 30 28 27 26 24 24 22 19 16 16 16 17 17 16 14 13 12 12 12 13 13
3 4 7 4 1 6 8 6 6 7 3 3 3 5 4 5 5 3 3 4 3 2 1 2 3 3 3 3 6 4 1 6 8 8 11 12 11 11 8 7 6 6 5 4 5 6 11 17 20 22 24 25 26 27 28 29 30 31 31 32 33 33 33 32 31 29 27 25 25 25 25 23 20 17 16 17 17 17 17 16 15 13 12 11 11 12
1 4 6 3 0 6 8 7 7 6 4 1 3 4 4 5 7 5 1 0 3 3 1 1 2 3 1 2 6 6 5 5 7 10 12 13 13 13 10 7 6 5 5 5 4 4 8 14 18 20 23 24 25 26 28 31 32 34 34 33 34 33 32 31 30 29 27 25 25 26 26 24 20 18 17 18 18 17 16 16 16 15 13 12 11 11
2 3 6 1 3 5 5 6 4 3 6 5 3 5 3 3 4 4 2 2 3 2 1 0 2 3 1 1 4 6 5 4 5 9 11 12 14 14 11 10 9 7 6 5 5 5 8 13 17 19 21 23 25 27 30 33 34 35 34 33 33 32 31 31 30 29 27 25 26 27 27 25 21 19 18 18 18 17 16 16 16 15 14 13 11 11
2 1 7 2 3 3 1 6 2 1 3 4 5 6 5 3 1 2 3 2 2 2 2 2 2 2 2 3 1 3 2 2 5 7 10 11 11 10 11 13 12 9 7 6 5 4 5 10 15 18 19 20 23 25 26 28 28 26 25 25 25 26 27 28 28 28 28 27 26 27 28 27 23 21 20 19 18 17 17 16 16 16 15 14 13 12
1 1 4 4 1 2 3 4 3 2 1 2 3 4 2 3 4 3 3 3 4 3 2 1 2 2 4 4 2 3 2 3 6 7 8 9 9 9 10 11 11 10 8 6 6 5 5 7 10 12 15 18 20 20 20 21 21 20 20 21 22 23 24 24 25 27 28 28 27 28 28 27 25 23 22 20 19 19 18 17 17 16 15 14 14 13
1 1 2 5 3 0 1 1 5 6 3 2 3 2 1 2 3 3 2 2 4 4 3 2 1 4 4 2 3 4 3 4 7 8 7 8 8 7 8 9 9 10 10 7 6 6 6 7 8 8 11 17 18 18 18 20 21 21 21 22 24 24 23 24 25 27 27 28 28 27 28 28 27 25 23 22 21 21 20 19 17 16 15 14 15 14
0 1 1 3 4 2 2 3 4 6 6 5 4 4 4 3 4 4 1 1 2 4 4 4 3 5 3 1 1 3 5 6 8 9 9 8 7 6 5 5 5 5 6 6 6 6 7 9 11 11 11 14 16 18 19 21 22 23 23 24 26 26 24 24 25 27 27 27 28 28 28 28 27 26 24 23 23 22 22 20 18 15 14 14 14 14
2 2 1 3 1 1 3 4 1 4 4 5 4 3 4 3 4 5 3 3 2 3 2 3 1 4 3 1 1 3 6 6 6 8 9 7 7 7 6 5 4 4 5 5 6 6 9 12 13 15 15 15 16 19 20 21 21 22 21 22 24 26 26 26 26 26 26 27 27 28 28 27 26 26 25 24 24 23 23 22 19 16 15 15 14 14
1 3 2 3 3 3 5 6 3 1 5 5 3 2 2 1 3 5 5 4 4 3 2 3 1 4 3 1 3 4 6 7 5 6 9 8 6 6 6 5 5 6 6 6 6 7 10 13 14 15 16 17 17 18 18 17 17 18 18 19 21 24 26 27 27 27 25 25 26 26 26 26 25 25 25 24 24 23 23 23 21 19 17 17 16 16
1 2 2 2 2 3 4 6 5 4 4 3 2 3 1 2 5 5 3 4 3 4 4 4 3 4 2 2 5 6 7 8 6 6 7 7 6 6 6 5 6 7 7 7 7 7 9 10 9 10 13 16 17 17 16 15 16 17 18 22 25 25 26 27 30 29 26 24 23 23 24 24 24 24 24 24 23 22 22 22 22 21 19 18 18 17
2 2 2 4 4 3 2 1 2 4 4 2 3 5 4 3 6 5 3 4 2 4 4 4 4 3 2 6 7 7 8 8 7 7 7 7 7 6 6 6 6 6 7 7 7 7 8 8 8 7 8 10 13 15 17 18 19 21 23 25 26 26 26 28 30 28 24 21 19 21 22 22 22 22 21 21 21 22 21 20 20 20 20 20 19 18
3 3 3 4 4 3 4 4 4 2 3 4 6 7 6 2 3 6 5 3 4 5 3 4 5 6 7 10 10 10 11 10 8 8 8 8 7 7 7 7 6 6 6 7 7 7 7 8 8 7 7 8 10 14 19 22 25 27 27 26 24 24 26 26 27 25 24 24 22 21 22 22 21 20 18 16 15 16 18 18 19 19 19 19 18 18
4 4 5 3 3 1 1 3 5 2 4 4 6 7 8 6 1 6 4 4 5 7 2 5 7 10 11 12 12 12 12 11 9 8 8 8 8 7 8 8 8 8 7 7 7 7 7 6 6 7 8 9 10 12 17 23 25 25 24 22 22 22 22 22 23 21 22 24 23 22 23 24 23 22 21 19 16 14 14 15 17 18 18 18 17 16
5 3 3 2 3 5 6 5 5 3 3 4 7 9 9 8 3 6 3 1 5 5 4 7 10 9 10 12 13 12 11 11 10 8 7 8 8 8 8 9 9 8 8 8 7 7 7 5 4 5 8 9 10 10 12 14 17 17 18 18 18 19 17 16 16 16 16 17 17 18 20 20 19 18 18 20 20 18 16 15 16 18 19 19 17 16
4 2 2 2 3 6 9 8 6 4 3 5 9 11 10 8 6 7 4 3 4 1 3 8 10 4 3 9 11 9 9 8 8 7 7 8 9 9 9 9 9 8 8 8 7 6 6 4 3 6 9 10 10 9 7 7 9 12 14 14 13 12 11 11 13 13 13 13 14 15 13 12 13 12 11 14 16 17 16 14 14 16 18 19 19 18
3 1 2 1 2 6 10 11 8 4 4 8 12 13 13 10 7 6 4 3 4 3 3 8 9 2 0 7 10 9 8 8 8 8 7 7 8 9 9 8 8 7 7 7 6 5 4 4 5 6 9 11 12 11 11 11 11 11 12 10 7 5 4 7 9 9 9 9 11 13 10 8 9 9 9 10 11 10 10 10 10 13 15 16 17 17
3 2 1 3 3 3 7 11 11 6 5 10 14 15 14 10 6 3 4 4 2 4 5 7 5 2 4 8 10 10 10 9 9 8 7 6 6 8 9 8 7 7 7 6 6 5 3 4 5 7 9 11 12 13 13 14 15 12 8 5 6 8 8 8 10 11 10 8 7 8 9 8 7 8 9 9 8 6 5 5 6 9 11 11 11 12
2 2 1 3 3 2 6 8 8 6 7 7 8 8 8 7 5 3 4 6 5 4 4 2 2 2 6 11 12 11 10 10 9 8 7 7 7 8 8 8 8 7 7 6 6 5 4 5 7 9 11 12 13 14 14 14 16 14 11 9 11 14 16 16 18 18 15 14 15 14 14 14 13 13 12 10 9 8 6 5 5 4 4 4 5 8
2 4 2 2 3 1 6 8 6 6 5 1 4 5 3 3 4 3 3 5 6 3 1 2 2 4 7 9 11 11 9 8 7 6 6 6 7 8 7 7 7 7 6 6 6 6 6 7 9 12 15 15 15 16 17 17 18 18 17 17 18 19 22 23 22 21 19 18 18 16 16 15 14 13 11 9 8 8 7 7 6 4 3 3 3 4
3 4 1 1 3 1 3 7 6 3 2 3 3 5 3 2 3 3 4 4 6 4 3 4 4 5 6 6 8 9 8 7 7 6 6 6 7 9 9 7 7 8 7 6 5 6 8 10 11 14 16 17 16 17 19 19 20 22 23 24 24 24 25 25 24 23 22 20 18 17 17 15 15 14 13 11 10 8 8 8 6 3 1 1 2 2
3 3 2 2 2 1 2 4 3 3 5 3 3 6 4 4 5 3 3 5 7 5 3 6 5 5 8 8 8 8 9 8 7 5 4 5 5 8 9 8 7 8 7 7 7 8 11 12 14 15 16 17 17 18 19 20 22 24 26 27 26 26 25 25 24 23 22 20 18 17 17 16 16 16 14 13 12 11 11 10 7 5 2 1 0 1
4 3 2 2 2 2 3 2 1 2 5 4 4 4 3 3 4 2 0 3 5 4 2 7 8 7 9 9 8 9 10 9 7 4 4 4 5 6 7 8 8 9 9 11 12 13 15 16 16 16 17 18 18 19 20 21 22 23 25 26 26 25 25 24 23 21 21 20 18 16 16 16 15 14 14 13 13 14 13 11 8 6 3 1 1 2
4 3 3 3 1 2 4 3 1 0 2 3 4 4 2 4 5 3 1 3 5 4 3 7 9 9 9 10 10 10 9 8 5 1 2 4 5 6 8 10 13 14 14 14 16 16 16 18 18 18 18 19 20 19 20 20 20 21 23 24 24 24 24 23 22 20 19 18 16 15 14 13 13 13 13 13 14 14 13 11 9 7 4 3 2 3
7 4 4 4 2 2 4 3 2 3 3 3 5 7 5 2 4 1 3 3 5 4 3 7 9 9 9 9 10 9 7 6 4 3 2 4 5 7 9 10 14 17 16 17 18 17 16 17 20 21 20 20 20 19 19 18 18 20 22 22 22 23 23 21 20 18 17 15 14 13 12 11 11 12 13 13 14 13 12 11 9 7 6 5 5 5
7 5 4 5 3 2 4 2 1 2 1 3 5 8 8 3 3 6 3 4 5 3 2 6 9 8 9 9 7 4 4 5 6 5 4 6 7 8 10 12 16 18 19 19 19 18 17 18 21 22 21 21 20 18 17 16 17 19 19 19 20 21 21 19 17 16 15 14 13 12 12 13 13 13 15 15 15 15 14 12 10 9 7 7 7 9
4 3 3 4 2 2 3 2 0 1 2 4 6 8 7 3 5 5 2 5 4 4 1 4 7 8 8 9 7 4 3 5 7 6 7 8 8 9 11 15 18 20 21 22 21 20 20 19 20 20 19 18 18 16 15 15 16 18 17 16 18 19 17 16 15 14 14 15 14 14 14 15 15 15 16 16 16 16 16 15 14 12 11 10 10 11
2 2 2 3 2 3 2 3 1 2 2 3 7 8 4 1 2 2 5 4 2 2 3 1 4 3 2 3 4 4 5 8 10 9 8 8 8 9 13 16 18 18 20 22 22 23 23 21 20 19 18 16 15 14 13 13 16 17 16 16 17 16 14 13 13 13 14 15 15 16 15 15 15 15 15 15 14 15 16 16 15 14 13 13 12 12
1 1 1 0 1 1 2 3 3 1 3 3 6 6 3 2 2 4 3 3 3 4 1 1 2 1 2 3 3 5 7 10 11 11 10 9 8 10 14 17 17 17 19 21 22 23 24 22 20 19 17 15 14 13 11 12 15 15 15 16 16 13 12 12 12 12 14 14 15 15 15 15 15 14 14 14 13 14 15 14 14 14 13 13 13 13
1 2 1 2 2 3 2 1 2 4 4 3 3 1 0 2 3 3 2 3 3 3 3 3 3 2 3 4 4 5 7 8 8 7 8 8 8 10 13 16 17 17 18 20 21 22 23 23 20 18 15 13 12 11 10 11 13 14 15 15 13 11 11 11 11 11 13 13 13 14 14 14 14 13 13 13 13 13 14 14 13 14 13 13 13 14
2 3 3 2 2 2 3 5 4 4 4 3 1 3 4 4 3 2 2 3 4 2 3 4 4 4 5 6 5 4 5 6 7 6 6 6 5 6 10 14 16 17 18 20 20 21 22 22 20 18 15 11 9 9 9 10 12 15 15 13 11 10 10 10 10 11 12 12 12 12 12 12 12 12 13 13 13 13 14 14 13 14 13 13 14 14
3 2 3 2 1 1 2 2 2 2 3 4 3 4 4 3 3 1 1 2 4 3 2 4 5 5 6 7 6 5 4 6 8 8 7 7 6 6 8 11 13 15 17 19 20 20 21 21 20 18 16 13 11 10 10 9 11 14 15 12 10 10 9 9 10 11 11 11 11 11 10 11 11 12 11 12 12 13 13 14 13 14 13 13 13 14
2 2 3 2 1 1 0 2 3 3 3 4 5 3 2 3 4 3 2 2 4 3 0 4 6 7 8 8 8 7 6 7 9 9 7 7 7 8 9 10 11 13 15 18 19 19 19 19 18 17 17 15 13 12 11 11 10 11 10 9 9 8 8 8 9 10 10 10 10 10 10 11 11 11 11 11 11 11 11 12 12 13 13 13 13 13
1 2 2 1 2 1 2 4 3 3 4 3 3 2 2 4 5 4 4 3 3 4 3 2 4 6 7 8 9 10 8 8 10 11 8 7 8 11 12 11 11 13 14 16 18 18 17 17 16 15 16 15 13 12 11 10 9 7 5 5 5 6 6 7 8 8 9 9 9 9 10 10 10 10 10 11 11 11 12 12 12 12 12 12 12 12
2 2 2 2 1 2 4 3 1 1 4 4 3 1 2 2 2 4 5 5 5 6 5 4 2 4 6 7 9 10 9 7 8 11 10 8 10 14 17 16 15 15 15 16 16 16 16 17 17 16 16 14 12 10 8 7 6 4 3 3 3 4 4 5 6 7 8 8 8 9 9 9 9 10 10 10 10 11 11 11 11 11 10 9 9 9
1 2 2 2 1 2 4 3 3 3 1 3 2 1 2 2 2 5 6 5 5 4 3 4 4 3 6 8 10 10 9 8 9 11 10 10 12 16 20 20 19 19 19 17 16 16 17 19 19 18 17 14 11 9 7 5 3 1 1 1 1 2 3 4 5 6 7 8 8 8 7 8 9 9 9 10 11 11 11 10 10 9 9 9 9 9
4 4 4 4 3 4 6 6 4 3 1 3 4 3 4 3 2 5 4 3 2 2 4 5 3 1 3 7 11 12 9 9 12 14 11 11 16 19 21 21 21 22 22 20 19 19 20 21 20 19 17 15 12 10 8 6 5 4 3 3 2 0 1 2 3 5 6 7 7 7 7 8 9 9 10 11 11 11 11 11 11 10 10 10 10 10
Wind_Direction
139 124 178 199 191 187 201 191 173 180 116 125 131 150 173 152 141 172 159 163 165 171 180 165 172 191 189 182 175 172 176 182 186 182 181 181 179 176 177 182 184 189 193 190 190 189 187 187 186 187 189 189 191 194 194 193 196 199 199 199 202 202 203 205 203 199 196 197 201 208 214 217 215 213 211 207 204 203 198 197 198 200 201 198 201 203
111 162 221 216 185 179 195 195 176 126 77 93 124 150 165 146 151 169 152 168 171 165 161 157 168 193 191 182 171 168 179 190 189 184 184 184 185 181 180 185 185 184 184 182 185 187 186 185 184 184 185 186 189 191 192 193 196 199 201 201 202 202 202 204 203 199 197 197 200 203 204 204 204 205 206 203 202 203 201 199 198 202 204 203 207 211
104 213 235 219 176 142 129 176 168 126 93 87 108 125 136 153 140 61 114 158 163 113 146 161 167 188 191 175 167 179 189 194 193 190 185 180 183 187 185 185 182 176 173 178 181 183 184 183 182 182 183 187 191 192 193 196 198 199 201 202 203 202 202 201 201 202 200 199 202 202 200 198 198 202 205 206 204 201 203 205 205 208 210 209 211 217
156 242 234 196 149 123 108 153 127 100 83 92 113 119 162 187 152 78 134 137 89 53 152 165 153 179 198 176 173 195 197 182 183 199 196 180 183 194 192 186 183 179 175 178 179 179 181 181 180 182 184 187 190 191 193 195 197 199 200 200 200 201 202 200 199 201 202 203 206 206 205 204 203 206 208 210 212 207 205 209 210 212 213 213 212 217
200 235 176 135 142 138 134 156 131 116 93 289 174 150 161 186 170 125 139 134 99 104 156 150 126 220 209 183 173 191 202 190 175 189 214 228 222 201 193 191 189 184 178 177 178 178 177 177 182 186 186 186 187 191 194 195 198 200 200 199 198 198 199 200 200 200 203 208 210 208 208 207 206 211 213 212 213 211 210 210 210 210 213 215 216 218
236 238 140 115 135 130 129 164 172 150 158 304 240 189 173 173 159 124 132 135 115 168 176 158 152 246 227 192 182 174 191 197 179 187 210 215 218 209 193 193 190 186 184 180 178 177 176 177 183 188 188 186 188 194 197 199 200 202 203 200 198 197 199 200 201 202 205 211 211 208 206 203 202 208 213 214 213 211 211 210 210 211 214 217 219 219
253 229 132 130 139 118 122 179 223 159 130 287 245 192 168 156 144 141 147 148 135 176 181 171 156 234 262 221 191 170 181 191 182 190 205 207 209 211 200 195 183 183 187 182 179 176 176 178 181 186 189 189 193 197 199 199 200 203 204 202 199 198 199 200 201 204 209 212 211 210 210 209 207 209 215 217 217 216 215 214 216 217 216 215 216 217
198 128 96 114 121 116 131 204 230 151 124 237 240 161 155 156 157 159 155 148 133 116 156 192 123 108 257 227 168 170 185 191 190 191 198 205 210 210 205 200 186 182 183 179 180 178 179 180 180 185 191 195 198 198 196 197 199 202 205 204 202 200 200 201 203 205 210 214 212 210 212 214 213 216 220 220 219 221 221 221 222 222 220 217 215 217
196 164 175 148 129 155 182 200 195 154 147 238 216 146 154 158 155 155 143 124 115 103 161 215 152 109 269 245 147 171 196 198 198 193 194 200 205 206 205 201 193 184 181 178 182 183 182 182 184 188 193 197 198 197 197 199 200 202 204 204 203 202 202 203 205 206 211 216 215 212 214 215 217 221 224 222 220 222 223 224 224 224 224 220 216 216
250 200 187 154 154 201 203 194 174 161 194 234 150 100 87 91 88 91 92 73 65 50 209 205 181 133 273 246 158 171 212 211 201 193 196 199 199 199 202 200 192 184 181 180 184 187 185 185 188 190 192 195 196 198 200 200 201 202 204 204 203 204 204 205 207 207 209 212 211 211 214 218 220 221 222 221 220 223 225 227 227 228 229 225 219 216
271 243 174 150 179 196 193 188 175 178 191 142 87 79 67 64 59 54 43 58 67 325 244 192 184 136 295 249 182 183 217 203 190 186 193 197 199 198 199 199 192 182 179 178 182 189 189 188 189 190 190 192 194 197 198 199 201 202 204 204 204 206 207 207 207 207 208 209 209 211 215 220 225 225 224 223 222 224 226 227 229 230 231 228 226 222
314 300 212 210 203 176 159 185 188 191 187 127 89 113 86 41 22 39 19 44 99 252 262 183 168 123 246 249 208 217 246 173 179 186 184 189 196 197 197 197 190 177 171 172 174 183 186 187 188 188 189 190 190 192 196 198 200 202 203 203 203 205 206 207 207 208 210 211 212 215 217 221 227 230 230 230 229 229 228 227 229 232 232 230 229 225
308 252 234 243 224 166 144 183 314 59 157 135 121 125 100 44 17 44 352 45 171 251 280 163 149 138 251 247 210 225 241 207 185 184 182 187 190 191 194 190 180 166 163 167 170 174 178 182 185 187 186 186 188 191 194 197 199 201 202 202 202 204 206 207 208 210 213 215 217 219 220 222 228 234 237 237 237 235 232 229 230 233 235 233 230 226
290 275 254 213 243 183 148 162 187 143 162 154 149 140 120 112 112 126 281 8 242 268 316 142 153 206 271 263 227 235 236 217 189 180 181 184 184 186 188 174 152 140 145 161 173 176 178 181 184 185 185 186 189 192 193 195 198 200 201 202 203 205 207 208 210 212 215 218 220 221 222 223 228 235 239 242 242 237 231 230 233 238 241 240 238 235
177 272 234 193 222 188 166 179 171 151 161 172 162 139 137 147 145 164 193 189 218 254 64 130 166 209 229 258 278 265 240 200 177 172 171 174 175 173 166 144 129 130 136 157 177 180 182 182 182 184 186 189 192 192 192 194 197 199 201 203 204 206 207 208 210 213 217 220 221 221 221 223 229 235 238 244 244 235 228 229 233 239 245 249 250 247
161 244 247 240 204 161 173 187 145 120 139 203 144 116 149 176 150 135 188 190 166 134 117 166 203 219 201 282 316 322 186 165 158 154 158 165 163 154 149 138 136 151 149 146 166 179 181 182 182 184 187 191 193 192 192 193 196 199 202 204 206 208 209 209 211 214 217 220 221 220 219 222 229 233 236 240 238 231 228 230 232 237 245 253 258 253
136 266 275 307 190 181 181 178 163 159 171 154 128 159 198 172 131 117 184 268 96 116 200 205 274 309 303 322 346 25 75 127 146 150 157 163 158 156 157 144 142 165 161 144 144 153 171 180 186 188 189 191 192 193 194 196 199 202 203 205 207 208 209 210 212 214 217 219 221 220 219 222 228 231 233 234 231 229 229 230 232 238 246 253 257 251
143 276 288 235 181 227 191 150 164 188 146 123 166 191 170 93 92 105 123 28 65 144 261 294 246 301 346 245 339 21 56 98 136 149 156 162 162 162 164 160 160 168 171 166 151 141 161 176 186 192 193 193 195 197 198 199 202 204 205 206 206 207 209 211 213 214 216 219 221 220 218 221 226 229 230 231 229 229 230 232 236 242 249 251 250 246
120 285 294 263 176 277 29 112 118 335 108 135 174 165 127 119 158 119 134 150 127 162 277 313 262 242 195 214 312 28 53 121 131 144 152 159 161 157 164 171 171 168 175 179 161 142 154 172 185 192 193 195 199 203 203 202 203 203 205 207 206 207 210 212 213 214 216 220 222 222 220 221 225 227 228 230 231 231 233 236 241 247 252 251 247 246
107 107 285 280 242 304 26 90 169 203 57 74 123 138 119 135 163 162 152 159 144 159 231 308 315 253 222 218 171 154 203 158 137 140 144 150 152 149 159 171 173 174 183 186 165 152 151 161 174 184 190 195 199 204 206 203 201 201 204 207 206 208 211 212 213 214 216 219 222 223 223 223 226 227 228 229 232 235 237 239 242 247 253 252 249 248
20 85 260 291 326 37 136 172 185 176 152 101 105 150 203 86 130 141 97 112 131 146 179 158 256 262 248 229 179 165 176 154 140 131 129 139 142 145 156 163 170 177 180 177 161 154 149 139 129 140 174 189 193 198 200 197 196 198 203 208 209 210 210 211 214 216 217 219 221 223 224 225 227 228 229 231 234 237 239 241 242 245 249 252 253 252
356 91 242 302 7 76 219 234 193 179 172 153 144 173 177 136 124 122 107 277 119 126 160 158 201 261 270 254 216 153 146 150 136 126 129 134 130 132 146 147 149 159 158 149 144 144 136 125 118 120 140 165 177 182 186 188 192 197 202 209 212 211 209 212 216 217 219 219 220 223 225 227 229 230 231 233 236 239 239 238 239 241 244 249 253 254
169 95 29 285 278 164 261 293 266 189 161 123 119 153 149 129 122 129 171 214 114 97 122 115 159 267 279 263 118 121 132 130 123 127 129 124 120 127 133 121 103 104 114 116 120 124 116 112 117 121 129 145 162 173 178 180 186 194 200 207 214 214 211 214 218 220 221 221 222 224 226 228 230 231 234 235 238 240 238 235 235 237 240 244 248 252
130 67 28 306 303 322 313 322 341 91 95 75 37 47 99 117 125 139 169 163 133 150 131 86 190 261 285 42 84 100 114 109 112 129 125 118 117 121 120 110 97 98 105 110 111 108 104 107 114 126 138 147 159 174 177 174 179 189 196 208 220 221 216 216 221 223 221 219 222 225 226 228 229 231 234 236 239 240 238 235 235 238 240 243 246 249
40 32 47 48 17 11 357 348 349 1 36 59 333 332 5 107 107 115 114 82 109 186 155 135 205 255 301 95 109 117 118 110 110 118 118 119 118 111 104 98 98 100 103 107 105 98 96 100 112 134 152 157 165 171 161 156 173 188 200 216 223 220 215 217 223 223 218 216 219 222 224 226 229 231 233 236 239 240 238 237 238 240 243 245 247 251
55 38 64 101 124 146 138 22 319 320 335 344 335 340 351 103 119 126 116 89 128 184 150 149 194 222 153 132 134 139 129 118 114 112 108 108 107 106 102 95 95 96 95 95 92 88 86 89 100 122 143 155 164 160 146 156 183 199 208 216 217 212 210 216 223 223 220 220 222 223 224 224 226 228 231 235 239 241 240 239 240 242 244 246 249 252
103 48 39 97 121 164 195 227 261 306 8 353 341 344 343 332 117 106 104 142 163 149 176 221 175 153 163 157 152 155 144 134 130 122 117 113 107 105 104 97 90 87 87 89 87 84 88 94 108 123 131 139 151 153 155 172 194 206 210 211 208 207 206 209 215 218 221 224 226 225 223 221 220 220 221 227 235 240 243 242 242 243 245 246 248 252
105 42 4 53 83 58 205 248 291 354 71 31 359 356 343 324 43 106 123 195 156 130 213 242 168 156 175 171 162 163 154 141 138 133 125 121 114 109 107 101 95 91 89 90 88 90 98 109 121 128 131 136 144 152 164 180 195 204 208 208 204 202 202 202 204 206 211 216 218 220 220 219 218 218 219 222 226 233 241 245 245 244 243 243 244 247
104 69 322 330 25 25 26 13 2 30 87 59 33 19 358 348 44 100 116 158 122 139 218 202 168 169 179 167 158 159 153 142 138 134 124 120 117 114 112 107 104 102 97 95 98 103 112 120 118 109 112 120 130 143 164 182 190 198 208 212 208 203 200 198 197 196 196 199 206 215 221 221 221 223 225 226 227 229 232 240 248 248 243 240 240 241
103 100 283 301 6 18 15 7 17 42 39 38 38 25 10 8 44 80 83 56 71 81 223 159 146 148 170 155 145 142 143 134 130 128 122 125 125 119 115 111 111 109 103 102 107 111 114 111 97 100 101 100 105 118 131 144 160 186 208 214 211 210 204 199 201 202 197 199 213 222 222 218 218 220 225 228 229 229 228 232 246 252 247 241 239 240
84 113 278 352 28 4 0 357 1 29 53 39 27 17 11 9 20 49 51 29 54 48 65 116 122 100 146 139 130 131 137 130 129 129 122 124 125 119 114 111 112 111 106 106 109 108 109 105 95 89 87 87 92 98 96 100 125 165 199 204 193 188 193 199 202 201 200 207 225 231 227 219 216 216 222 228 229 231 235 239 251 261 256 244 239 240
62 113 321 56 66 338 345 352 345 352 50 38 18 8 4 358 351 13 15 5 64 107 103 107 121 180 167 138 131 141 146 137 135 133 124 124 125 120 119 117 117 119 116 114 114 111 107 99 90 79 77 83 87 89 92 99 112 133 164 163 117 109 126 143 139 140 153 155 158 179 181 170 172 179 188 198 201 204 223 239 250 262 263 255 247 243
58 105 54 69 108 278 332 347 342 1 40 24 357 350 350 343 332 343 15 16 32 85 119 147 226 208 157 144 142 148 149 144 144 140 134 136 128 119 120 122 121 120 116 113 112 113 107 88 81 80 80 81 82 85 94 101 102 108 119 113 99 102 107 108 109 115 121 115 111 121 130 131 136 142 147 155 158 157 158 163 180 213 239 245 243 241
47 89 71 75 127 227 331 354 11 35 47 340 299 324 342 3 14 33 50 19 13 32 98 234 199 148 147 149 148 148 147 144 142 134 128 131 128 122 118 119 120 117 112 111 111 111 107 93 86 87 86 84 85 88 93 95 95 96 98 98 96 96 94 92 94 97 97 98 101 104 107 111 115 116 116 121 130 135 137 134 133 138 141 145 183 219
58 78 78 64 101 134 351 23 42 31 267 232 289 340 353 69 50 89 111 50 20 25 53 61 90 119 120 118 127 129 126 122 116 109 109 118 127 127 123 121 124 120 113 113 114 112 110 104 98 93 90 88 90 92 90 90 91 91 90 90 91 90 89 86 84 84 85 90 95 97 97 97 97 98 99 100 104 109 110 110 111 116 132 139 162 188
96 98 109 85 77 97 71 74 111 241 275 292 351 359 7 22 13 27 74 34 13 7 58 80 76 83 95 100 110 117 116 106 90 72 79 99 113 124 129 135 133 125 122 123 119 113 112 113 110 104 98 94 94 95 95 94 92 88 87 87 87 86 85 84 81 80 81 84 87 88 89 87 87 87 88 90 94 96 93 92 100 111 127 181 203 212
105 109 90 82 88 128 122 114 172 292 324 342 2 360 357 339 333 346 352 336 351 2 68 109 104 96 101 105 110 116 115 105 87 44 35 69 93 106 117 125 122 115 115 116 114 114 117 119 119 114 107 100 97 97 100 100 97 90 84 82 82 81 79 78 76 76 75 74 75 75 76 78 81 81 82 82 83 84 84 83 87 95 99 105 72 55
71 85 121 125 105 96 99 82 56 300 273 271 281 291 276 254 257 224 153 317 332 3 62 117 117 114 118 121 124 128 120 108 109 101 55 86 105 104 103 109 112 110 109 109 109 111 114 119 121 121 117 108 103 104 106 104 100 92 83 78 77 76 73 71 70 70 70 67 65 63 64 68 72 74 76 76 74 77 82 83 83 83 81 85 79 63
35 44 95 100 63 68 101 108 143 183 214 246 275 293 306 267 241 152 57 334 309 339 65 115 120 120 125 131 137 139 128 122 152 192 170 135 131 126 122 115 110 109 110 112 112 110 110 116 119 121 120 114 109 109 110 106 99 91 82 76 75 73 70 69 68 68 69 68 64 61 58 58 62 66 69 70 71 75 79 81 81 81 82 85 81 74
16 15 46 63 52 69 95 101 177 192 247 277 284 302 316 334 84 72 48 288 284 313 77 125 133 135 133 134 137 133 136 156 171 182 164 139 127 126 130 126 119 117 116 115 115 114 113 113 113 112 113 113 112 113 113 108 99 89 81 76 74 72 71 73 73 72 73 72 71 68 64 62 62 65 68 70 73 76 78 79 80 79 78 77 73 74
2 6 47 81 71 40 72 95 224 261 275 290 297 303 308 338 68 81 193 237 267 309 302 141 146 151 146 147 153 161 182 167 149 142 143 135 125 123 125 125 124 124 123 122 122 121 116 110 107 106 106 110 114 115 115 110 99 91 86 81 76 74 77 79 79 79 79 78 77 75 72 69 68 68 70 71 73 76 76 75 75 75 74 70 67 67
358 5 29 76 65 27 66 94 29 300 260 297 310 304 307 26 110 189 229 233 226 277 302 126 157 169 125 123 135 137 148 140 130 133 141 135 131 131 130 127 124 123 124 125 125 125 118 108 103 102 102 107 111 111 112 109 100 94 90 85 82 82 84 83 80 80 80 79 79 76 72 69 67 66 66 65 67 71 69 67 68 69 68 67 64 63
144 98 22 240 158 85 58 60 55 230 245 322 340 340 19 64 211 228 253 262 210 197 207 120 174 172 50 77 115 131 142 141 138 143 144 139 141 142 139 136 132 128 128 126 125 126 122 112 105 101 100 101 104 105 110 108 99 92 87 84 86 89 88 83 81 80 79 78 76 72 68 64 61 59 59 57 58 62 62 61 61 61 60 59 57 56
163 137 151 234 188 115 89 108 190 212 242 302 357 42 70 298 258 218 229 274 254 186 164 164 167 128 97 116 131 135 139 134 130 136 138 135 141 142 139 137 134 131 129 126 125 128 125 118 111 107 104 103 103 103 106 106 101 93 86 84 88 90 87 82 80 79 76 74 71 65 61 58 55 53 52 51 51 54 55 54 55 56 55 53 51 50
238 197 165 165 185 165 178 213 228 236 256 280 250 215 249 294 288 215 210 263 278 235 180 164 146 125 119 123 119 108 115 117 108 106 110 111 117 131 136 136 136 135 132 128 127 130 128 123 120 115 110 109 109 106 102 104 104 96 91 92 95 91 85 81 78 75 71 66 62 57 51 48 46 45 45 44 44 46 48 47 49 52 52 52 51 50
255 191 145 139 237 251 213 231 289 326 313 315 302 248 258 312 329 335 328 283 282 277 194 154 141 130 127 128 122 111 123 130 119 111 110 104 98 110 122 126 130 133 132 129 128 129 128 125 124 121 115 111 112 111 106 105 103 96 93 94 94 90 87 83 77 74 69 64 58 52 47 44 41 40 42 43 44 46 46 45 45 48 48 48 49 47
283 145 116 88 71 79 173 270 321 339 304 318 336 327 333 353 348 357 11 320 305 320 349 145 140 133 131 132 132 131 141 139 125 119 119 115 112 114 115 118 126 132 132 132 132 133 133 129 125 123 119 115 113 112 109 103 98 93 90 86 80 77 77 75 73 72 67 62 56 51 48 47 43 38 36 36 36 37 37 37 37 40 41 41 39 35
221 133 117 101 114 141 234 259 279 282 270 298 342 353 346 341 343 7 29 15 3 10 20 98 129 140 144 145 144 147 154 154 143 138 137 133 131 127 121 121 128 133 135 138 141 141 139 135 133 132 128 123 120 117 112 104 96 89 79 64 51 44 49 60 66 66 62 56 50 46 45 45 40 34 31 29 25 23 23 22 21 25 34 39 34 25
149 149 171 149 103 310 290 282 283 317 310 321 341 342 289 288 358 34 34 30 38 37 23 25 72 135 150 154 154 151 152 156 154 149 147 147 145 139 135 138 144 145 147 151 153 151 148 146 146 144 138 133 132 128 119 107 94 78 50 27 4 357 19 45 52 52 50 44 41 42 40 37 33 28 25 22 18 17 17 17 15 17 26 34 34 27
168 201 174 119 88 281 266 238 163 144 254 273 265 279 273 244 92 63 46 37 42 48 45 39 46 107 140 154 164 159 151 156 162 159 153 152 153 149 148 153 158 158 160 163 161 160 159 157 154 150 145 144 147 147 142 132 120 106 37 17 349 348 12 33 34 34 33 29 31 35 30 22 19 19 18 16 14 13 14 16 19 21 22 24 26 29
183 186 172 155 176 225 233 220 179 142 178 230 219 239 271 261 107 91 88 83 82 107 107 85 55 61 156 166 170 166 158 157 162 162 157 154 158 157 157 162 167 167 169 172 169 166 163 160 158 156 154 154 157 160 162 163 165 172 174 164 159 131 42 22 13 17 18 18 23 25 15 7 7 9 9 10 11 13 13 14 15 18 19 18 17 19